Content
SEND FEEDBACK

Daily
Averages
Monthly
Summary
India

TRIVANDRUM, INDIA


Home > Asia > India
Elevation: 205 feet     Latitude: 08 29N     Longitude: 076 57E

WEATHER
 
SELECT A DAY
Number of Records: 112,541;   Date Range: 7/1/96 - 8/10/14
 
SHARE

PRINT THIS DATA

[ ← Previous Day ]
WEATHER ALMANAC - JUNE 21, 2013
[ Next Day → ]
[ °C ]   °F
Weather ElementAverageHighLow
Temperature81.4 °F86 °F (11:40 am)77 °F (11:40 pm)
Dewpoint76.1 °F77 °F (9:10 am)73.4 °F (11:40 pm)
Humidity84.5 %94 % (8:10 pm)74 % (11:40 am)
Barometer29.80 in29.83 in (9:10 am)29.74 in (5:10 pm)
Wind Speed6.3 mph11.5 mph (11:40 am)
Weather ElementAverage
Visibility1.9 mi
Wind DirectionSSW (216.2 °)

Weather ElementTotal
Precipitation---
Cooling Degree Days16.5 (Base 65)
Growing Degree Days31.5 (Base 50)
Averaged from 21 records on June 21, 2013
WEATHER CONDITIONS BREAKOUT
WIND DIRECTION BREAKOUT
WEATHER BY HOUR - JUNE 21, 2013
[ °C ]   °F
Local TimeTemperatureDewpointHumidityBarometerVisibilityWind DirectionWind SpeedGust SpeedPrecipitationEventsConditions
1:10 AM78.8 °F75.2 °F89 %29.77 in1.9 miCalmHaze
2:10 AM78.8 °F75.2 °F89 %29.77 in1.9 miCalmHaze
5:10 AM78.8 °F75.2 °F89 %29.77 inNorthHaze
5:40 AM78.8 °F75.2 °F89 %29.77 in1.9 miCalmHaze
6:40 AM78.8 °F75.2 °F89 %29.77 in1.6 miCalmHaze
7:10 AM78.8 °F75.2 °F89 %29.80 in1.2 miWNW (300°)4.6 mphHaze
9:10 AM82.4 °F77.0 °F84 %29.83 in1.9 miNW (320°)4.6 mphScattered Clouds
10:10 AM84.2 °F77.0 °F79 %29.83 in1.9 miWNW (290°)3.5 mphHaze
10:40 AM84.2 °F77.0 °F79 %29.80 in2.5 miWNW (290°)10.4 mphHaze
11:10 AM84.2 °F77.0 °F79 %29.80 in2.5 miWNW (300°)6.9 mphHaze
11:40 AM86.0 °F77.0 °F74 %29.80 in2.5 miNW (310°)11.5 mphHaze
12:40 PM84.2 °F77.0 °F79 %29.80 in2.5 miWNW (300°)11.5 mphHaze
1:10 PM86.0 °F77.0 °F74 %29.77 in2.5 miWNW (300°)9.2 mphHaze
1:40 PM86.0 °F77.0 °F74 %29.77 in2.5 miNW (310°)6.9 mphHaze
2:10 PM84.2 °F77.0 °F79 %29.77 in2.5 miWNW (300°)9.2 mphHaze
5:10 PM82.4 °F75.2 °F79 %29.74 in1.6 miNW (310°)4.6 mphHaze
8:10 PM78.8 °F77.0 °F94 %29.83 in0.9 miNW (310°)11.5 mphRainRain
9:10 PM78.8 °F77.0 °F94 %29.83 in1.2 miNW (310°)5.8 mphRainLight Rain
9:40 PM78.8 °F77.0 °F94 %29.83 in1.6 miWNW (290°)11.5 mphRainLight Rain
10:10 PM78.8 °F75.2 °F89 %29.83 in1.9 miWNW (290°)6.9 mphHaze
11:40 PM77.0 °F73.4 °F89 %29.83 in1.6 miNorth (10°)6.9 mphRainLight Rain
Hourly data recorded from VOTV, located miles away from Trivandrum, India







STORIES FROM OUR PARTNERS